Flag for Colombia Weather past 2 weeks in Villavicencio, Colombia

Now
64 °F

Scattered showers. Broken clouds.


Feels Like: 64 °F
Forecast: N/A
Wind: 6 mph from East

Location: Bogota / Eldorado

Current Time: Sep 22, 2014 at 4:10:32 PM

Latest Report: Sep 22, 2014 at 3:00 PM


Visibility: N/A

Pressure: 30.24 "Hg

Humidity: 52%

Dew point: 46 °F

Location of VillavicencioLocation

Historic Weather in Villavicencio — Graph

°F

Villavicencio temperature yesterday

Maximum temperature yesterday: 64 °F (at 3:00 PM)
Minimum temperature yesterday: 52 °F (at 3:00 AM)
Average temperature yesterday: 57 °F

Past Weeks' High & Low Weather Summary

 TemperatureHumidityPressure
High79 °F (Sep 22, 12:00 AM)100% (Sep 17, 4:00 AM)30.44 "Hg (Sep 17, 4:00 AM)
Low41 °F (Sep 10, 6:00 AM)42% (Sep 9, 6:00 PM)29.89 "Hg (Sep 22, 12:00 AM)
Average57 °F74%30.32 "Hg
* Reported Sep 7 3:00 PM — Sep 22 3:00 PM, Villavicencio, Weather by CustomWeather, © 2014

Note: Actual official high and low records may vary slightly from our data, if they occured in-between our weather recording intervals... More about our weather records

Advertising

Villavicencio weather history for previous 24 hours

 ConditionsComfort  
Time TempWeatherWind HumidityBarometerVisibility
3:00 PM
Sep 22
64 °FScattered showers. Broken clouds.6 mph52%30.24 "HgN/A
2:00 PM68 °FBroken clouds.3 mph46%30.25 "HgN/A
1:00 PM66 °FBroken clouds.2 mph49%30.30 "HgN/A
12:00 PM64 °FBroken clouds.6 mph56%30.33 "HgN/A
11:00 AM64 °FBroken clouds.5 mph56%30.37 "HgN/A
10:00 AM61 °FBroken clouds.5 mph63%30.40 "HgN/A
9:00 AM59 °FScattered clouds.6 mph68%30.40 "HgN/A
8:00 AM57 °FBroken clouds.5 mph77%30.39 "HgN/A
7:00 AM50 °FBroken clouds.3 mph94%30.38 "HgN/A
6:00 AM48 °FScattered clouds.2 mph94%30.34 "HgN/A
5:00 AM50 °FPassing clouds.No wind94%30.33 "HgN/A
4:00 AM50 °FPassing clouds.No wind94%30.33 "HgN/A
3:00 AM52 °FPassing clouds.3 mph88%30.32 "HgN/A
2:00 AM54 °FPassing clouds.2 mph82%30.32 "HgN/A
1:00 AM54 °FPassing clouds.6 mph88%30.35 "HgN/A
12:00 AM79 °FPassing clouds.No wind94%29.89 "Hg5 mi
11:00 PM
Sep 21
55 °FPassing clouds.3 mph88%30.39 "Hg6 mi
10:00 PM55 °FLight rain. Partly cloudy.2 mph88%30.39 "Hg4 mi
9:00 PM55 °FPassing clouds.3 mph82%30.37 "HgN/A
8:00 PM55 °FPassing clouds.3 mph82%30.35 "HgN/A
7:00 PM55 °FPassing clouds.7 mph88%30.31 "HgN/A
6:00 PM57 °FLight rain. Passing clouds.5 mph82%30.29 "HgN/A
5:00 PM59 °FHeavy rain. Partly sunny.7 mph82%30.27 "Hg6 mi
4:00 PM63 °FPartly sunny.7 mph73%30.27 "HgN/A
Weather by CustomWeather, © 2014

See weather overviewHow to use our weather pages